DW9791 Weather Reports


time (UTC)temp
C
wind
direction
speed
KPH
gust
KPH
rain 1hr
cm
rain 24hr
cm
rain mn
cm
humidity
%
barometer
mb
20260502200236 13 160 3.2 14.5 0.00 0.00 0.00 80 1015.2
20260502193232 13 125 3.2 12.9 0.00 0.00 0.00 81 1015.6
20260502180219 11 144 4.8 12.9 0.00 0.00 0.00 93 1015.3
20260502170241 10 156 4.8 8.0 0.00 0.00 0.00 96 1015.2
20260502163237 10 142 6.4 11.3 0.00 0.00 0.00 96 1015.0
20260502150223 10 97 0.0 4.8 0.00 0.00 0.00 96 1014.1
20260502130236 9 127 3.2 11.3 0.00 0.00 0.00 96 1014.2
20260502120227 9 106 3.2 4.8 0.00 0.00 0.00 96 1014.4
20260502113223 9 328 0.0 0.0 0.00 0.00 0.00 96 1014.4
20260502110218 10 328 0.0 0.0 0.00 0.00 0.00 95 1014.5
20260502103244 10 328 0.0 0.0 0.00 0.00 0.00 95 1015.0
20260502100240 10 328 0.0 0.0 0.00 0.00 0.00 95 1015.0
20260502090230 10 328 0.0 0.0 0.00 0.00 0.00 95 1015.7
20260502070245 10 328 0.0 0.0 0.00 0.00 0.00 94 1016.1
20260502063240 11 328 0.0 0.0 0.00 0.00 0.00 93 1016.1
20260502060236 11 328 0.0 0.0 0.00 0.00 0.00 93 1016.4
20260502053231 11 328 0.0 0.0 0.00 0.00 0.00 92 1016.1
20260502050227 11 328 0.0 1.6 0.00 0.00 0.00 90 1016.0
20260502043222 11 328 0.0 0.0 0.00 0.00 0.00 89 1015.8
20260502030239 14 325 1.6 3.2 0.00 0.00 0.00 80 1015.6
20260502023235 16 325 0.0 1.6 0.00 0.00 0.00 77 1015.1
20260502020230 17 325 1.6 3.2 0.00 0.00 0.00 75 1015.1
20260502010222 19 329 3.2 4.8 0.00 0.00 0.00 69 1015.1
20260502003218 20 322 1.6 6.4 0.00 0.00 0.00 68 1015.1
20260501233238 21 321 3.2 11.3 0.00 0.00 0.00 63 1015.4
20260501230234 21 355 3.2 6.4 0.00 0.00 0.00 62 1015.7
20260501223230 22 340 3.2 6.4 0.00 0.00 0.00 60 1016.4
20260501220225 22 342 3.2 9.7 0.00 0.00 0.00 57 1016.8
20260501213221 23 355 1.6 4.8 0.00 0.00 0.00 55 1017.1
20260501210246 23 348 1.6 12.9 0.00 0.00 0.00 54 1017.1
20260501203242 23 348 1.6 8.0 0.00 0.00 0.00 55 1017.4